Location: Dos Palmas
(32.4468°N, 116.8732°W)
Time: 23:55:05
(UTC+00:00)

Cosmos 2034 Rocket - Pass Details

Date: 20 June 2021
Orbit: 957 x 1001 km, 82.9° (Epoch: 27 July)

Event Time Altitude Azimuth Distance (km) Brightness Sun altitude
Rises 07:20:00 0° 353° (N) 3,651 8.1 -33.7°
Reaches altitude 10° 07:22:31 10° 353° (N) 2,697 7.1 -33.8°
Enters shadow 07:27:23 59° 349° (N) 1,101 4.4 -33.9°
